This demonstration page uses our WeatherBlox Daily Observations layout. Learn more.

41.55636, -103.73856

Hourly Observations for April 20, 2019

Temp ( °F °C ) Dew Point ( °F °C ) Humidity (%) Winds ( mph kmh ) Pressure ( in mb ) Visibility ( mi km ) Precip ( " mm )
12:53 am 00:53 Clear 47 8.3 35 1.7 63 63 E 8 13 29.8 1009 10 16.09344 0 0
1:53 am 01:53 Clear 47 8.3 35 1.7 63 63 E 8 13 29.77 1008 10 16.09344 0 0
2:53 am 02:53 Clear 45 7.2 33 0.6 63 63 E 5 7 29.74 1007 10 16.09344 0 0
3:53 am 03:53 Clear 43 6.1 33 0.6 68 68 Calm 29.74 1007 10 16.09344 0 0
4:53 am 04:53 Clear 35 1.7 31 -0.6 85 85 NNW 3 6 29.77 1008 10 16.09344 0 0
5:53 am 05:53 Clear 37 2.8 32 0 82 82 N 5 7 29.77 1008 10 16.09344 0 0
6:53 am 06:53 Sunny 44 6.7 36 2.2 73 73 NW 5 7 29.77 1008 10 16.09344 0 0
7:53 am 07:53 Sunny 48 8.9 38 3.3 68 68 Calm 29.77 1008 10 16.09344 0 0
8:53 am 08:53 Sunny 58 14.4 39 3.9 50 50 Calm 29.74 1007 10 16.09344 0 0
9:53 am 09:53 Sunny 67 19.4 38 3.3 35 35 S 3 6 29.71 1006 10 16.09344 0 0
10:53 am 10:53 Sunny 77 25 38 3.3 24 24 WSW 7 11 29.68 1005 10 16.09344 0 0
11:53 am 11:53 Sunny 81 27.2 38 3.3 21 21 W 17 28 29.65 1004 10 16.09344 0 0
12:53 pm 12:53 Sunny 80 26.7 37 2.8 21 21 W 20 31 29.65 1004 10 16.09344 0 0
1:53 pm 13:53 Sunny 81 27.2 38 3.3 21 21 W 15 24 29.62 1003 10 16.09344 0 0
2:53 pm 14:53 Sunny 80 26.7 35 1.7 20 20 WNW 12 19 29.59 1002 10 16.09344 0 0
3:53 pm 15:53 Sunny 81 27.2 35 1.7 19 19 VRB 3 6 29.59 1002 10 16.09344 0 0
4:53 pm 16:53 Sunny 83 28.3 41 5 23 23 VRB 3 6 29.56 1001 10 16.09344 0 0
5:53 pm 17:53 Sunny 82 27.8 42 5.6 24 24 E 3 6 29.56 1001 10 16.09344 0 0
6:53 pm 18:53 Sunny 78 25.6 34 1.1 20 20 ENE 5 7 29.56 1001 10 16.09344 0 0
7:53 pm 19:53 Clear 70 21.1 34 1.1 27 27 SSW 21 33 29.59 1002 10 16.09344 0 0
8:53 pm 20:53 Partly Cloudy 75 23.9 31 -0.6 20 20 S 8 13 29.56 1001 10 16.09344 0 0
9:53 pm 21:53 Mostly Clear 71 21.7 34 1.1 26 26 N 20 31 29.56 1001 10 16.09344 0 0
10:53 pm 22:53 Clear 68 20 37 2.8 32 32 N 14 22 29.53 1000 10 16.09344 0 0
11:53 pm 23:53 Clear 63 17.2 38 3.3 40 40 N 8 13 29.56 1001 10 16.09344 0 0

Powered by AerisWeather